| time (UTC) | temp F | wind direction | speed knots | gust knots | rain 1hr in | rain 24hr in | rain mn in | humidity % | barometer mb |
| 20260507193058 | 49 | 0.0 | 0.0 | 0.00 | 0.00 | 0.00 | 49 | 995.6 | |
| 20260507191551 | 48 | 0.0 | 0.0 | 0.00 | 0.00 | 0.00 | 51 | 995.7 | |
| 20260507190055 | 48 | 0.0 | 0.0 | 0.00 | 0.00 | 0.00 | 47 | 995.7 | |
| 20260507184542 | 49 | 0.0 | 0.0 | 0.00 | 0.00 | 0.00 | 48 | 995.6 | |
| 20260507183038 | 48 | 0.0 | 0.0 | 0.00 | 0.00 | 0.00 | 48 | 995.6 | |
| 20260507181534 | 48 | 0.0 | 0.0 | 0.00 | 0.00 | 0.00 | 48 | 995.8 | |
| 20260507180029 | 48 | 0.0 | 0.0 | 0.00 | 0.00 | 0.00 | 48 | 995.9 | |
| 20260507174535 | 48 | 0.0 | 0.0 | 0.00 | 0.00 | 0.00 | 48 | 995.9 | |
| 20260507173046 | 47 | 0.0 | 0.0 | 0.00 | 0.00 | 0.00 | 52 | 996.2 | |
| 20260507171523 | 47 | 0.0 | 0.0 | 0.00 | 0.00 | 0.00 | 50 | 996.3 | |
| 20260507170014 | 48 | 0.0 | 0.0 | 0.00 | 0.00 | 0.00 | 54 | 996.6 | |
| 20260507164508 | 47 | 0.0 | 0.0 | 0.00 | 0.00 | 0.00 | 53 | 996.7 | |
| 20260507163004 | 47 | 0.0 | 0.0 | 0.00 | 0.00 | 0.00 | 53 | 996.9 | |
| 20260507161613 | 47 | 0.0 | 0.0 | 0.00 | 0.00 | 0.00 | 54 | 997.1 | |
| 20260507154550 | 46 | 0.0 | 0.0 | 0.00 | 0.00 | 0.00 | 57 | 997.1 | |
| 20260507153052 | 45 | 0.0 | 0.0 | 0.00 | 0.00 | 0.00 | 64 | 997.2 | |
| 20260507151542 | 43 | 0.0 | 0.0 | 0.00 | 0.00 | 0.00 | 63 | 997.2 | |
| 20260507150041 | 43 | 0.0 | 0.0 | 0.00 | 0.00 | 0.00 | 69 | 997.2 | |
| 20260507144534 | 42 | 0.0 | 0.0 | 0.00 | 0.00 | 0.00 | 71 | 997.2 | |
| 20260507143028 | 42 | 0.0 | 0.0 | 0.00 | 0.00 | 0.00 | 73 | 997.3 | |
| 20260507141528 | 42 | 0.0 | 0.0 | 0.00 | 0.00 | 0.00 | 70 | 997.3 | |
| 20260507140020 | 42 | 0.0 | 0.0 | 0.00 | 0.00 | 0.00 | 70 | 997.3 | |
| 20260507134515 | 42 | 0.0 | 0.0 | 0.00 | 0.00 | 0.00 | 69 | 997.3 | |
| 20260507133016 | 42 | 0.0 | 0.0 | 0.00 | 0.00 | 0.00 | 71 | 997.2 | |
| 20260507131509 | 42 | 0.0 | 0.0 | 0.00 | 0.00 | 0.00 | 73 | 997.2 | |
| 20260507130002 | 42 | 0.0 | 0.0 | 0.00 | 0.00 | 0.00 | 76 | 997.0 | |
| 20260507124606 | 41 | 0.0 | 0.0 | 0.00 | 0.00 | 0.00 | 80 | 997.0 | |
| 20260507123054 | 41 | 0.0 | 0.0 | 0.00 | 0.00 | 0.00 | 87 | 996.9 | |
| 20260507121549 | 38 | 0.0 | 0.0 | 0.00 | 0.00 | 0.00 | 90 | 996.9 | |
| 20260507120046 | 36 | 0.0 | 0.0 | 0.00 | 0.00 | 0.00 | 93 | 996.5 | |
| 20260507114555 | 34 | 0.0 | 0.0 | 0.00 | 0.00 | 0.00 | 92 | 996.4 | |
| 20260507113039 | 33 | 0.0 | 0.0 | 0.00 | 0.00 | 0.00 | 91 | 996.3 | |
| 20260507111533 | 32 | 0.0 | 0.0 | 0.00 | 0.00 | 0.00 | 90 | 996.2 | |
| 20260507110037 | 33 | 0.0 | 0.0 | 0.00 | 0.00 | 0.00 | 89 | 995.9 | |
| 20260507104528 | 33 | 0.0 | 0.0 | 0.00 | 0.00 | 0.00 | 89 | 995.8 | |
| 20260507103023 | 33 | 0.0 | 0.0 | 0.00 | 0.00 | 0.00 | 89 | 995.8 | |
| 20260507101517 | 34 | 0.0 | 0.0 | 0.00 | 0.00 | 0.00 | 87 | 995.7 | |
| 20260507100015 | 35 | 0.0 | 0.0 | 0.00 | 0.00 | 0.00 | 86 | 995.7 | |
| 20260507094506 | 35 | 0.0 | 0.0 | 0.00 | 0.00 | 0.00 | 86 | 995.7 | |
| 20260507093004 | 36 | 0.0 | 0.0 | 0.00 | 0.00 | 0.00 | 85 | 995.8 | |
| 20260507091558 | 36 | 0.0 | 0.0 | 0.00 | 0.00 | 0.00 | 85 | 995.8 | |
| 20260507090054 | 37 | 0.0 | 0.0 | 0.00 | 0.00 | 0.00 | 84 | 995.8 | |
| 20260507084550 | 37 | 0.0 | 0.0 | 0.00 | 0.00 | 0.00 | 83 | 995.9 | |
| 20260507083045 | 38 | 0.0 | 0.0 | 0.00 | 0.00 | 0.00 | 83 | 995.9 | |
| 20260507081542 | 38 | 0.0 | 0.0 | 0.00 | 0.00 | 0.00 | 82 | 995.9 | |
| 20260507080038 | 39 | 0.0 | 0.0 | 0.00 | 0.00 | 0.00 | 81 | 996.0 | |
| 20260507074532 | 39 | 0.0 | 0.0 | 0.00 | 0.00 | 0.00 | 81 | 996.0 | |
| 20260507073028 | 40 | 0.0 | 0.0 | 0.00 | 0.00 | 0.00 | 81 | 996.1 | |
| 20260507071525 | 40 | 0.0 | 0.0 | 0.00 | 0.00 | 0.00 | 82 | 996.0 | |
| 20260507070028 | 40 | 0.0 | 0.0 | 0.00 | 0.00 | 0.00 | 81 | 996.2 | |
| 20260507064516 | 41 | 0.0 | 0.0 | 0.00 | 0.00 | 0.00 | 82 | 996.2 | |
| 20260507063011 | 41 | 0.0 | 0.0 | 0.00 | 0.00 | 0.00 | 81 | 996.4 | |
| 20260507061506 | 41 | 0.0 | 0.0 | 0.00 | 0.00 | 0.00 | 79 | 996.3 | |
| 20260507060001 | 42 | 0.0 | 0.0 | 0.00 | 0.00 | 0.00 | 76 | 996.5 | |
| 20260507054557 | 43 | 0.0 | 0.0 | 0.00 | 0.00 | 0.00 | 72 | 996.7 | |
| 20260507053107 | 43 | 0.0 | 0.0 | 0.00 | 0.00 | 0.00 | 68 | 996.6 | |
| 20260507051549 | 44 | 0.0 | 0.0 | 0.00 | 0.00 | 0.00 | 65 | 996.6 | |
| 20260507050047 | 44 | 0.0 | 0.0 | 0.00 | 0.00 | 0.00 | 65 | 996.6 | |
| 20260507044558 | 44 | 0.0 | 0.0 | 0.00 | 0.00 | 0.00 | 66 | 996.6 | |
| 20260507043042 | 44 | 0.0 | 0.0 | 0.00 | 0.00 | 0.00 | 66 | 996.6 | |
| 20260507041539 | 43 | 0.0 | 0.0 | 0.00 | 0.00 | 0.00 | 75 | 996.6 | |
| 20260507040040 | 43 | 0.0 | 0.0 | 0.00 | 0.00 | 0.00 | 74 | 996.5 | |
| 20260507034530 | 44 | 0.0 | 0.0 | 0.00 | 0.00 | 0.00 | 73 | 996.6 | |
| 20260507033030 | 44 | 0.0 | 0.0 | 0.00 | 0.00 | 0.00 | 70 | 996.6 | |
| 20260507031524 | 45 | 0.0 | 0.0 | 0.00 | 0.00 | 0.00 | 66 | 996.4 | |
| 20260507030015 | 45 | 0.0 | 0.0 | 0.00 | 0.00 | 0.00 | 62 | 996.5 | |
| 20260507024510 | 45 | 0.0 | 0.0 | 0.00 | 0.00 | 0.00 | 59 | 996.4 | |
| 20260507023006 | 45 | 0.0 | 0.0 | 0.00 | 0.00 | 0.00 | 59 | 996.4 | |
| 20260507021502 | 45 | 0.0 | 0.0 | 0.00 | 0.00 | 0.00 | 57 | 996.3 | |
| 20260507014604 | 45 | 0.0 | 0.0 | 0.00 | 0.00 | 0.00 | 54 | 996.2 | |
| 20260507013102 | 46 | 0.0 | 0.0 | 0.00 | 0.00 | 0.00 | 53 | 996.2 | |
| 20260507011557 | 46 | 0.0 | 0.0 | 0.00 | 0.00 | 0.00 | 52 | 996.2 | |
| 20260507010050 | 46 | 0.0 | 0.0 | 0.00 | 0.00 | 0.00 | 52 | 996.1 | |
| 20260507004546 | 46 | 0.0 | 0.0 | 0.00 | 0.00 | 0.00 | 59 | 996.0 | |
| 20260507003041 | 46 | 0.0 | 0.0 | 0.00 | 0.00 | 0.00 | 63 | 995.9 | |
| 20260507001537 | 46 | 0.0 | 0.0 | 0.00 | 0.00 | 0.00 | 61 | 995.8 | |
| 20260507000034 | 46 | 0.0 | 0.0 | 0.00 | 0.00 | 0.00 | 58 | 995.8 | |
| 20260506234528 | 46 | 0.0 | 0.0 | 0.00 | 0.00 | 0.00 | 57 | 995.8 | |
| 20260506233024 | 47 | 0.0 | 0.0 | 0.00 | 0.00 | 0.00 | 53 | 995.8 | |
| 20260506231520 | 47 | 0.0 | 0.0 | 0.00 | 0.00 | 0.00 | 53 | 995.9 | |
| 20260506230017 | 48 | 0.0 | 0.0 | 0.00 | 0.00 | 0.00 | 51 | 995.9 | |
| 20260506224511 | 49 | 0.0 | 0.0 | 0.00 | 0.00 | 0.00 | 50 | 995.8 | |
| 20260506223014 | 49 | 0.0 | 0.0 | 0.00 | 0.00 | 0.00 | 49 | 995.9 | |
| 20260506221502 | 49 | 0.0 | 0.0 | 0.00 | 0.00 | 0.00 | 51 | 996.0 | |
| 20260506220101 | 49 | 0.0 | 0.0 | 0.00 | 0.00 | 0.00 | 52 | 995.9 | |
| 20260506214555 | 50 | 0.0 | 0.0 | 0.00 | 0.00 | 0.00 | 52 | 995.9 | |
| 20260506213049 | 50 | 0.0 | 0.0 | 0.00 | 0.00 | 0.00 | 50 | 995.9 | |
| 20260506211544 | 50 | 0.0 | 0.0 | 0.00 | 0.00 | 0.00 | 51 | 995.9 | |
| 20260506210041 | 50 | 0.0 | 0.0 | 0.00 | 0.00 | 0.00 | 49 | 996.0 | |
| 20260506204540 | 50 | 0.0 | 0.0 | 0.00 | 0.00 | 0.00 | 49 | 996.1 | |
| 20260506203039 | 50 | 0.0 | 0.0 | 0.00 | 0.00 | 0.00 | 49 | 996.1 | |
| 20260506201531 | 50 | 0.0 | 0.0 | 0.00 | 0.00 | 0.00 | 49 | 996.1 | |
| 20260506200023 | 50 | 0.0 | 0.0 | 0.00 | 0.00 | 0.00 | 50 | 996.2 | |
| 20260506194520 | 51 | 0.0 | 0.0 | 0.00 | 0.00 | 0.00 | 51 | 996.2 |